This is the latest recevied weather packets stored in our database for station/object KU9TRY. If no packets are shown the sender has not sent any weather packets the latest 10 day(s).
| Time | Temp. | Humidity | Pressure | Rain* | Wind** | Luminosity | Snow |
|---|---|---|---|---|---|---|---|
| 1787837728 | 22.22° C | 93% | 1016.4 hPa | 0 mm | - | 122 W/m² | - |
| 1787837422 | 21.67° C | 94% | 1016.5 hPa | 0 mm | - | 122 W/m² | - |
| 1787837118 | 21.67° C | 94% | 1016.4 hPa | 0 mm | - | 75 W/m² | - |
| 1787836817 | 21.67° C | 96% | 1016.4 hPa | 0 mm | - | 303 W/m² | - |
| 1787836512 | 21.67° C | 98% | 1016.6 hPa | 0 mm | - | 246 W/m² | - |
| 1787836207 | 21.11° C | 99% | 1016.6 hPa | 0 mm | - | 120 W/m² | - |
| 1787835903 | 20.56° C | 99% | 1016.7 hPa | 0 mm | - | 94 W/m² | - |
| 1787835602 | 20.56° C | 99% | 1016.7 hPa | 0 mm | - | 186 W/m² | - |
| 1787835298 | 20.56° C | 99% | 1016.6 hPa | 0 mm | - | 128 W/m² | - |
| 1787834993 | 20.56° C | 99% | 1016.7 hPa | 0 mm | - | 127 W/m² | - |
| 1787834691 | 20° C | 99% | 1016.7 hPa | 0 mm | - | 97 W/m² | - |
| 1787834387 | 20° C | 99% | 1016.5 hPa | 0 mm | - | 55 W/m² | - |
| 1787834083 | 20° C | 99% | 1016.7 hPa | 0 mm | - | 88 W/m² | - |
| 1787833778 | 20° C | 99% | 1016.7 hPa | 0 mm | - | 91 W/m² | - |
| 1787833473 | 20° C | 99% | 1016.5 hPa | 0 mm | - | 77 W/m² | - |
| 1787833168 | 20° C | 99% | 1016.5 hPa | 0 mm | - | 60 W/m² | - |
| 1787832864 | 20° C | 99% | 1016.4 hPa | 0 mm | - | 37 W/m² | - |
| 1787832559 | 20° C | 99% | 1016.1 hPa | 0 mm | - | 50 W/m² | - |
| 1787832258 | 20° C | 99% | 1016.1 hPa | 0 mm | - | 31 W/m² | - |
| 1787831956 | 20° C | 99% | 1016.1 hPa | 0 mm | - | 29 W/m² | - |
| 1787831652 | 20° C | 99% | 1015.9 hPa | 0 mm | - | 26 W/m² | - |
| 1787831350 | 20° C | 99% | 1016.2 hPa | 0 mm | - | 22 W/m² | - |
| 1787831048 | 20° C | 99% | 1015.9 hPa | 0 mm | - | 17 W/m² | - |
| 1787830747 | 20° C | 99% | 1016.1 hPa | 0 mm | - | 17 W/m² | - |
| 1787830445 | 20° C | 99% | 1016 hPa | 0 mm | - | 15 W/m² | - |
* Rain latest hour (hover to see other rain measurements)
** Current wind speed in m/s (hover to see current wind gust speed)